IK5NLA Vaiano IT current weather conditions

sailwx.info

Wind from 082 at 13 knots

Air temperature -0.6° C
Dewpoint -5.0° C

Last reported at 2017-Jan-18 05:36 UTC.
Time now 2017-Jan-18 06:06 UTC

Location: N 43°58' E 011°06'.
View on Google Maps.

See reports from other nearby stations

  
Tides and Currents Weather Stations Pressure Air Temp Water Temp Dewpoint Dewpoint Depression Visibility Wind Speed Wind Dir Waves Ship Positions
date/time (UTC)wind fromknots sea level pressurealtimeterstation pressurevisibilityair tempwater tempwave heightnotes
2017-Jan-18 05:36 082 13 -0.6
2017-Jan-18 05:31 069 13 -0.6
2017-Jan-18 05:26 033 15 -0.6
2017-Jan-18 05:16 060 13 -0.6
2017-Jan-18 05:11 075 14 -0.6
2017-Jan-18 05:01 059 12 -0.6
2017-Jan-18 04:46 076 14 -0.6
2017-Jan-18 04:41 067 15 -0.6
2017-Jan-18 04:26 064 13 -0.6
2017-Jan-18 04:21 055 12 -0.6
2017-Jan-18 04:11 067 13 -0.6
2017-Jan-18 04:06 079 17 -0.6
2017-Jan-18 03:56 067 21 -0.6
2017-Jan-18 03:51 072 20 -0.6
2017-Jan-18 03:41 078 20 -0.6
2017-Jan-18 03:36 057 21 -0.6
2017-Jan-18 03:31 056 21 -0.6
2017-Jan-18 03:16 076 19 -0.6
2017-Jan-18 03:11 080 19 -0.6
2017-Jan-18 03:06 061 19 -0.6
2017-Jan-18 02:56 057 19 -0.6
2017-Jan-18 02:41 082 16 -0.6
2017-Jan-18 02:16 087 17 -0.6
2017-Jan-18 01:51 064 19 -0.6
2017-Jan-18 01:41 080 19 -0.6
2017-Jan-18 01:36 071 19 -0.6
2017-Jan-18 01:26 078 20 -0.6
2017-Jan-18 01:21 056 19 -0.6
2017-Jan-18 01:06 073 22 -0.6
2017-Jan-18 01:01 075 21 -0.6
2017-Jan-18 00:46 092 18 -0.6
2017-Jan-18 00:16 071 17 -0.6
2017-Jan-18 00:06 074 17 -0.6
2017-Jan-18 00:01 074 17 -0.6
2017-Jan-17 23:51 080 17 -0.6
2017-Jan-17 23:46 070 18 -0.6
2017-Jan-17 23:41 082 18 -0.6
2017-Jan-17 23:31 067 16 -0.6
2017-Jan-17 23:26 074 15 -0.6
2017-Jan-17 23:21 075 16 -0.6
2017-Jan-17 23:11 057 17 -0.6
2017-Jan-17 23:06 057 17 -0.6
2017-Jan-17 22:56 076 15 -0.6
2017-Jan-17 22:46 063 15 -0.6
2017-Jan-17 22:42 067 15 -0.6
2017-Jan-17 22:37 069 14 -0.6
2017-Jan-17 22:26 059 14 -0.6
2017-Jan-17 22:21 083 15 -0.6
2017-Jan-17 22:06 079 13 -0.6
2017-Jan-17 21:41 063 16 -0.0
2017-Jan-17 21:36 076 15 -0.0
2017-Jan-17 21:32 095 15 -0.0
2017-Jan-17 21:26 079 14 -0.0
2017-Jan-17 20:56 088 13 -0.6
2017-Jan-17 20:46 092 13 -0.6
2017-Jan-17 20:41 059 13 -0.6
2017-Jan-17 20:36 064 13 -0.0
2017-Jan-17 20:31 051 13 -0.0
2017-Jan-17 20:26 082 14 -0.0
2017-Jan-17 20:21 076 15 -0.0
2017-Jan-17 20:02 047 14 -0.0
2017-Jan-17 19:56 040 13 -0.0
2017-Jan-17 19:51 040 13 -0.0
2017-Jan-17 19:36 064 13 -0.0
2017-Jan-17 19:31 058 14 -0.0
2017-Jan-17 19:21 037 13 -0.0
2017-Jan-17 19:11 052 13 -0.0
2017-Jan-17 19:06 074 13 -0.0
2017-Jan-17 19:01 067 13 -0.0
2017-Jan-17 18:51 037 11 -0.0
2017-Jan-17 18:36 025 13 -0.0
2017-Jan-17 18:26 018 13 -0.0
2017-Jan-17 18:06 058 13 -0.0
2017-Jan-17 17:57 075 13 -0.6
2017-Jan-17 17:46 086 12 -0.6
2017-Jan-17 17:41 064 13 -0.6
2017-Jan-17 17:26 065 16 -0.0
2017-Jan-17 17:06 074 13 -0.6
2017-Jan-17 17:01 069 13 -0.6
2017-Jan-17 16:51 044 12 -0.6
2017-Jan-17 16:41 058 13 -0.6
2017-Jan-17 16:27 047 17 -0.6
2017-Jan-17 15:52 094 14 -0.0
2017-Jan-17 15:36 084 19 -0.6
2017-Jan-17 15:31 070 18 -0.6
2017-Jan-17 15:26 050 16 -0.6
2017-Jan-17 15:16 068 13 -0.6
2017-Jan-17 14:51 024 13 -0.6
2017-Jan-17 14:37 043 13 -0.6
2017-Jan-17 14:21 041 14 -0.6
2017-Jan-17 14:17 015 14 -0.6
2017-Jan-17 14:06 078 13 -0.6
2017-Jan-17 14:01 032 13 -0.6
2017-Jan-17 13:41 076 17 -0.6
2017-Jan-17 13:31 075 16 -0.6
2017-Jan-17 13:21 083 17 -0.6
2017-Jan-17 12:56 036 16 -0.6
2017-Jan-17 12:46 045 15 -0.6
2017-Jan-17 12:36 038 15 -1.1
2017-Jan-17 12:31 014 15 -1.1
2017-Jan-17 12:26 093 16 -1.1
2017-Jan-17 12:21 080 16 -1.1
2017-Jan-17 12:16 046 18 -1.1
2017-Jan-17 12:01 052 17 -1.1
2017-Jan-17 11:56 084 18 -1.1
2017-Jan-17 11:51 061 17 -1.1
2017-Jan-17 11:46 072 17 -0.6
2017-Jan-17 11:31 085 14 -1.1
2017-Jan-17 11:21 073 14 -1.1
2017-Jan-17 11:16 076 13 -1.1
2017-Jan-17 11:11 056 13 -1.1
2017-Jan-17 11:06 032 13 -1.1
2017-Jan-17 10:56 075 13 -1.1
2017-Jan-17 10:51 067 14 -1.1
2017-Jan-17 10:36 091 14 -1.1
2017-Jan-17 10:31 090 13 -1.1
2017-Jan-17 10:06 076 13 -1.1
2017-Jan-17 09:56 051 14 -1.7
2017-Jan-17 09:41 103 13 -1.7
2017-Jan-17 09:21 067 13 -1.7
2017-Jan-17 09:16 090 13 -1.7
2017-Jan-17 09:06 061 17 -1.7
2017-Jan-17 09:01 098 18 -1.7
2017-Jan-17 08:51 049 17 -1.7
2017-Jan-17 08:46 074 18 -1.7
2017-Jan-17 08:36 081 16 -1.7
2017-Jan-17 08:31 038 17 -1.1
2017-Jan-17 08:16 076 19 -1.7
2017-Jan-17 08:11 061 19 -1.7
2017-Jan-17 08:06 069 19 -1.7
2017-Jan-17 08:01 072 20 -1.7
2017-Jan-17 07:56 073 21 -1.7
2017-Jan-17 07:51 082 20 -1.7
2017-Jan-17 07:41 057 18 -1.7
2017-Jan-17 07:31 081 17 -1.7
2017-Jan-17 07:26 079 17 -1.7
2017-Jan-17 07:21 095 16 -1.7
2017-Jan-17 07:06 055 19 -1.7
2017-Jan-17 07:01 079 18 -1.7
2017-Jan-17 06:31 059 19 -1.7
2017-Jan-17 05:46 082 19 -1.1
2017-Jan-17 05:31 074 16 -1.1
2017-Jan-17 05:26 076 18 -1.1
2017-Jan-17 05:16 079 16 -1.1
2017-Jan-17 05:11 071 14 -1.1
2017-Jan-17 04:51 067 14 -1.1
2017-Jan-17 04:41 113 15 -1.1
2017-Jan-17 04:36 086 16 -1.1
2017-Jan-17 04:21 086 15 -1.1
2017-Jan-17 04:11 084 16 -1.1
2017-Jan-17 04:01 063 14 -1.1
2017-Jan-17 03:51 080 13 -1.7
2017-Jan-17 03:46 083 13 -1.1
2017-Jan-17 03:41 088 13 -1.7
2017-Jan-17 03:31 069 15 -1.7
2017-Jan-17 03:21 067 13 -1.7
2017-Jan-17 03:16 044 13 -1.7
2017-Jan-17 03:11 079 13 -1.1
2017-Jan-17 03:01 086 13 -1.7
2017-Jan-17 02:51 069 13 -1.7
2017-Jan-17 02:46 076 13 -1.7
2017-Jan-17 02:36 078 14 -1.7
2017-Jan-17 02:31 016 15 -1.7
2017-Jan-17 02:26 076 15 -1.7
2017-Jan-17 02:16 065 15 -1.7
2017-Jan-17 02:01 076 14 -1.7
2017-Jan-17 01:56 066 13 -1.7
2017-Jan-17 01:26 067 16 -1.7
2017-Jan-17 01:21 075 17 -1.7
2017-Jan-17 01:16 079 17 -1.7
2017-Jan-17 01:11 064 16 -1.7
2017-Jan-17 01:06 069 16 -1.7
2017-Jan-17 00:41 069 15 -1.7
2017-Jan-17 00:36 056 14 -1.7
2017-Jan-17 00:31 084 14 -1.7
2017-Jan-17 00:26 073 14 -1.7
2017-Jan-17 00:11 079 15 -1.7
2017-Jan-17 00:06 090 14 -1.7
2017-Jan-17 00:01 055 14 -1.7
2017-Jan-16 23:41 079 15 -1.7
2017-Jan-16 23:36 090 16 -1.7
2017-Jan-16 23:31 088 18 -1.7
2017-Jan-16 23:26 084 17 -1.7
2017-Jan-16 23:21 065 17 -1.7
2017-Jan-16 23:16 092 17 -1.7
2017-Jan-16 23:11 065 16 -1.7
2017-Jan-16 23:06 071 17 -1.7
2017-Jan-16 23:01 073 17 -1.7
2017-Jan-16 22:56 053 16 -1.7
2017-Jan-16 22:41 063 18 -1.7
2017-Jan-16 22:36 058 18 -1.7
2017-Jan-16 22:31 071 16 -1.7
2017-Jan-16 22:21 071 17 -1.7
2017-Jan-16 22:16 062 18 -1.7
2017-Jan-16 22:11 046 17 -1.7
2017-Jan-16 22:06 060 17 -1.7
2017-Jan-16 21:46 017 17 -1.7
2017-Jan-16 21:41 074 16 -1.7
2017-Jan-16 21:31 076 16 -1.7
2017-Jan-16 21:26 053 16 -1.7
2017-Jan-16 21:22 066 15 -1.7
2017-Jan-16 21:16 076 15 -1.7
2017-Jan-16 21:06 355 15 -1.7
2017-Jan-16 21:01 088 15 -1.7
2017-Jan-16 20:46 070 14 -1.7
2017-Jan-16 20:41 067 14 -1.7
2017-Jan-16 20:31 065 16 -1.7
2017-Jan-16 20:26 073 15 -1.7
2017-Jan-16 20:21 071 13 -1.7
2017-Jan-16 20:11 057 13 -1.7
2017-Jan-16 20:06 062 13 -1.7
2017-Jan-16 20:01 107 13 -1.7
2017-Jan-16 19:56 086 14 -1.7
2017-Jan-16 19:51 049 13 -1.7
2017-Jan-16 19:46 080 14 -1.7
2017-Jan-16 19:41 080 14 -1.7
2017-Jan-16 19:36 095 14 -1.7
2017-Jan-16 19:31 070 15 -1.7
2017-Jan-16 19:21 046 13 -1.1
2017-Jan-16 19:16 069 14 -1.1
2017-Jan-16 19:06 097 13 -1.7
2017-Jan-16 19:01 094 13 -1.7
2017-Jan-16 18:46 065 14 -1.1
2017-Jan-16 18:36 072 15 -1.1
2017-Jan-16 18:01 106 13 -1.1
2017-Jan-16 17:56 074 14 -1.1
2017-Jan-16 17:51 075 13 -1.1
2017-Jan-16 17:41 041 14 -1.1
2017-Jan-16 17:31 080 13 -1.7
2017-Jan-16 17:26 060 13 -1.7
2017-Jan-16 17:16 056 13 -1.1
2017-Jan-16 17:01 062 13 -1.1
2017-Jan-16 16:46 088 13 -1.1
2017-Jan-16 16:36 069 11 -1.1
2017-Jan-16 16:31 083 12 -1.1
2017-Jan-16 16:26 360 12 -1.1
2017-Jan-16 16:16 017 12 -1.1
2017-Jan-16 16:11 082 11 -1.1
2017-Jan-16 16:06 095 13 -1.1
2017-Jan-16 16:01 067 13 -1.1
2017-Jan-16 15:56 060 13 -1.1
2017-Jan-16 15:46 053 13 -1.1
2017-Jan-16 15:01 036 12 -1.1
2017-Jan-16 14:56 088 12 -1.1
2017-Jan-16 14:51 105 12 -1.1
2017-Jan-16 14:46 069 11 -1.1
2017-Jan-16 14:41 095 9 -1.1
2017-Jan-16 14:06 026 8 -1.1
2017-Jan-16 14:01 028 8 -1.1
2017-Jan-16 13:36 032 7 -1.1
2017-Jan-16 13:26 036 7 -1.1
2017-Jan-16 13:16 019 7 -1.1
2017-Jan-16 13:11 013 7 -1.1
2017-Jan-16 12:56 109 10 -1.1
2017-Jan-16 12:51 051 8 -1.1
2017-Jan-16 12:46 058 7 -1.1
2017-Jan-16 12:36 005 8 -0.6
2017-Jan-16 12:26 015 8 -1.1
2017-Jan-16 12:11 040 8 -1.1
2017-Jan-16 12:06 019 7 -1.1
2017-Jan-16 12:01 074 8 -1.1
2017-Jan-16 11:56 071 9 -1.1
2017-Jan-16 11:46 081 10 -1.1
2017-Jan-16 11:41 093 11 -1.1
2017-Jan-16 11:36 084 10 -0.6
2017-Jan-16 11:31 033 10 -0.6
2017-Jan-16 11:21 094 9 -0.6
2017-Jan-16 11:11 046 11 -0.6
2017-Jan-16 11:01 063 11 -0.6
2017-Jan-16 10:56 055 10 -0.6
2017-Jan-16 10:46 084 10 -0.6
2017-Jan-16 10:41 117 10 -0.6
2017-Jan-16 10:36 075 10 -0.6
2017-Jan-16 10:31 360 10 -0.6
2017-Jan-16 10:26 044 11 -0.6
2017-Jan-16 10:16 021 9 -0.6
2017-Jan-16 10:06 355 10 -0.6
2017-Jan-16 10:01 084 11 -0.6
2017-Jan-16 09:56 360 10 -0.6
2017-Jan-16 09:51 094 11 -0.6
2017-Jan-16 09:36 056 11 -0.6
2017-Jan-16 09:31 101 10 -0.6
2017-Jan-16 09:21 034 11 -0.6
2017-Jan-16 09:16 096 11 -0.6
2017-Jan-16 09:01 360 10 -0.6
2017-Jan-16 08:51 022 10 -0.6
2017-Jan-16 08:46 103 11 -0.6
2017-Jan-16 08:41 110 12 -0.6
2017-Jan-16 08:21 071 10 -0.6
2017-Jan-16 08:16 030 11 -0.6
2017-Jan-16 08:11 061 12 -0.6
2017-Jan-16 08:06 091 11 -0.6
2017-Jan-16 07:56 082 10 -0.6
2017-Jan-16 07:51 053 10 -0.6
2017-Jan-16 07:41 068 9 -0.6
2017-Jan-16 07:36 075 9 -1.1
2017-Jan-16 07:31 059 9 -1.1
2017-Jan-16 07:16 071 8 -1.1
2017-Jan-16 07:11 049 10 -1.1
2017-Jan-16 07:06 065 10 -1.1
2017-Jan-16 06:41 045 9 -1.1
2017-Jan-16 06:36 346 8 -1.1
2017-Jan-16 06:21 015 8 -1.1
2017-Jan-16 06:16 100 9 -1.1
2017-Jan-16 06:06 059 10 -1.1